Simultaneous Nadir Overpasses (SNOs) Predictions

Prediction of SNOs between METOP-A and TERRA Satellite Orbit:

Table of predicted SNOs for the next 14.0 days since TLE Epoch: 5/4/2019
Index Date (METOP-A) Time (METOP-A) Lat,Lon (METOP-A) SZA (METOP-A ) Date (TERRA) Time (TERRA) Lat,Lon (TERRA) SZA (TERRA ) Distance(km) Time Diff (sec)
1 05/04/2019 17:04:05 81.46, -26.25 68.64 05/04/2019 17:05:09 81.45, -26.11 68.69 2.50 64
2 05/04/2019 17:54:44 -81.45, 141.85 111.28 05/04/2019 17:54:35 -81.46, 141.71 111.30 2.60 9
3 05/07/2019 12:38:18 81.45, 40.28 67.87 05/07/2019 12:39:24 81.45, 40.39 67.91 1.75 66
4 05/07/2019 13:28:58 -81.45,-151.99 112.10 05/07/2019 13:28:51 -81.44,-152.16 112.13 2.93 7
5 05/10/2019 08:12:31 81.45, 106.80 67.13 05/10/2019 08:13:39 81.45, 106.81 67.17 0.30 68
6 05/10/2019 09:03:12 -81.45, -85.84 112.88 05/10/2019 09:03:06 -81.44, -85.69 112.87 2.67 6
7 05/13/2019 03:46:44 81.45, 173.30 66.43 05/13/2019 03:47:54 81.45, 173.17 66.44 2.31 70
8 05/13/2019 04:37:25 -81.45, -19.32 113.58 05/13/2019 04:37:21 -81.44, -19.30 113.59 1.15 4
9 05/15/2019 23:20:56 81.45,-120.21 65.76 05/15/2019 23:22:07 81.46,-120.15 65.80 1.23 71
10 05/16/2019 00:11:36 -81.45, 47.58 114.20 05/16/2019 00:11:34 -81.46, 47.42 114.22 2.73 2




NCC Satellite Simultaneous Nadir Overpasses (SNOs) Prediction Service
